Year,Month,Day,Hour,Minute,Value (Times are PST for temperature in C)
2008,03,25,00,00,0.80
2008,03,25,00,01,0.80
2008,03,25,00,02,0.80
2008,03,25,00,03,0.80
2008,03,25,00,04,0.80
2008,03,25,00,05,0.80
2008,03,25,00,06,0.70
2008,03,25,00,07,0.70
2008,03,25,00,08,0.70
2008,03,25,00,09,0.70
2008,03,25,00,10,0.70
2008,03,25,00,11,0.70
2008,03,25,00,12,0.60
2008,03,25,00,13,0.60
2008,03,25,00,14,0.60
2008,03,25,00,15,0.60
2008,03,25,00,16,0.60
2008,03,25,00,17,0.60
2008,03,25,00,18,0.60
2008,03,25,00,19,0.60
2008,03,25,00,20,0.50
2008,03,25,00,21,0.50
2008,03,25,00,22,0.50
2008,03,25,00,23,0.50
2008,03,25,00,24,0.50
2008,03,25,00,25,0.50
2008,03,25,00,26,0.40
2008,03,25,00,27,0.40
2008,03,25,00,28,0.40
2008,03,25,00,29,0.40
2008,03,25,00,30,0.40
2008,03,25,00,31,0.40
2008,03,25,00,32,0.40
2008,03,25,00,33,0.40
2008,03,25,00,34,0.40
2008,03,25,00,35,0.30
2008,03,25,00,36,0.30
2008,03,25,00,37,0.30
2008,03,25,00,38,0.20
2008,03,25,00,39,0.20
2008,03,25,00,40,0.20
2008,03,25,00,41,0.10
2008,03,25,00,42,0.10
2008,03,25,00,43,0.10
2008,03,25,00,44,0.10
2008,03,25,00,45,0.10
2008,03,25,00,46,0.10
2008,03,25,00,47,0.10
2008,03,25,00,48,0.00
2008,03,25,00,49,-0.10
2008,03,25,00,50,-0.10
2008,03,25,00,51,-0.10
2008,03,25,00,52,0.10
2008,03,25,00,53,0.10
2008,03,25,00,54,0.10
2008,03,25,00,55,0.00
2008,03,25,00,56,-0.10
2008,03,25,00,57,-0.10
2008,03,25,00,58,-0.10
2008,03,25,00,59,-0.10
2008,03,25,01,00,-0.10
2008,03,25,01,01,-0.10
2008,03,25,01,02,-0.10
2008,03,25,01,03,-0.20
2008,03,25,01,04,-0.20
2008,03,25,01,05,-0.30
2008,03,25,01,06,-0.30
2008,03,25,01,07,-0.40
2008,03,25,01,08,-0.40
2008,03,25,01,09,-0.40
2008,03,25,01,10,-0.40
2008,03,25,01,11,-0.40
2008,03,25,01,12,-0.40
2008,03,25,01,13,-0.60
2008,03,25,01,14,-0.60
2008,03,25,01,15,-0.60
2008,03,25,01,16,-0.60
2008,03,25,01,17,-0.60
2008,03,25,01,18,-0.60
2008,03,25,01,19,-0.60
2008,03,25,01,20,-0.60
2008,03,25,01,21,-0.60
2008,03,25,01,22,-0.60
2008,03,25,01,23,-0.60
2008,03,25,01,24,-0.60
2008,03,25,01,25,-0.60
2008,03,25,01,26,-0.60
2008,03,25,01,27,-0.60
2008,03,25,01,28,-0.60
2008,03,25,01,29,-0.60
2008,03,25,01,30,-0.60
2008,03,25,01,31,-0.60
2008,03,25,01,32,-0.60
2008,03,25,01,33,-0.60
2008,03,25,01,34,-0.60
2008,03,25,01,35,-0.60
2008,03,25,01,36,-0.60
2008,03,25,01,37,-0.60
2008,03,25,01,38,-0.60
2008,03,25,01,39,-0.60
2008,03,25,01,40,-0.60
2008,03,25,01,41,-0.50
2008,03,25,01,42,-0.40
2008,03,25,01,43,-0.40
2008,03,25,01,44,-0.40
2008,03,25,01,45,-0.50
2008,03,25,01,46,-0.60
2008,03,25,01,47,-0.60
2008,03,25,01,48,-0.60
2008,03,25,01,49,-0.60
2008,03,25,01,50,-0.60
2008,03,25,01,51,-0.60
2008,03,25,01,52,-0.60
2008,03,25,01,53,-0.60
2008,03,25,01,54,-0.70
2008,03,25,01,55,-0.70
2008,03,25,01,56,-0.70
2008,03,25,01,57,-0.70
2008,03,25,01,58,-0.70
2008,03,25,01,59,-0.70
2008,03,25,02,00,-0.70
2008,03,25,02,01,-0.70
2008,03,25,02,02,-0.70
2008,03,25,02,03,-0.70
2008,03,25,02,04,-0.70
2008,03,25,02,05,-0.80
2008,03,25,02,06,-0.80
2008,03,25,02,07,-0.80
2008,03,25,02,08,-0.80
2008,03,25,02,09,-0.80
2008,03,25,02,10,-0.90
2008,03,25,02,11,-0.90
2008,03,25,02,12,-0.90
2008,03,25,02,13,-0.90
2008,03,25,02,14,-0.90
2008,03,25,02,15,-0.90
2008,03,25,02,16,-0.90
2008,03,25,02,17,-0.90
2008,03,25,02,18,-0.90
2008,03,25,02,19,-0.90
2008,03,25,02,20,-0.90
2008,03,25,02,21,-0.90
2008,03,25,02,22,-1.10
2008,03,25,02,23,-1.10
2008,03,25,02,24,-1.10
2008,03,25,02,25,-1.10
2008,03,25,02,26,-1.10
2008,03,25,02,27,-1.10
2008,03,25,02,28,-1.10
2008,03,25,02,29,-1.10
2008,03,25,02,30,-1.10
2008,03,25,02,31,-1.10
2008,03,25,02,32,-1.10
2008,03,25,02,33,-1.10
2008,03,25,02,34,-1.10
2008,03,25,02,35,-1.10
2008,03,25,02,36,-1.10
2008,03,25,02,37,-1.10
2008,03,25,02,38,-1.10
2008,03,25,02,39,-1.10
2008,03,25,02,40,-1.10
2008,03,25,02,41,-1.10
2008,03,25,02,42,-1.10
2008,03,25,02,43,-1.10
2008,03,25,02,44,-1.10
2008,03,25,02,45,-1.10
2008,03,25,02,46,-1.10
2008,03,25,02,47,-1.20
2008,03,25,02,48,-1.20
2008,03,25,02,49,-1.20
2008,03,25,02,50,-1.20
2008,03,25,02,51,-1.20
2008,03,25,02,52,-1.20
2008,03,25,02,53,-1.20
2008,03,25,02,54,-1.30
2008,03,25,02,55,-1.30
2008,03,25,02,56,-1.30
2008,03,25,02,57,-1.30
2008,03,25,02,58,-1.30
2008,03,25,02,59,-1.30
2008,03,25,03,00,-1.40
2008,03,25,03,01,-1.40
2008,03,25,03,02,-1.40
2008,03,25,03,03,-1.40
2008,03,25,03,04,-1.40
2008,03,25,03,05,-1.40
2008,03,25,03,06,-1.40
2008,03,25,03,07,-1.40
2008,03,25,03,08,-1.40
2008,03,25,03,09,-1.40
2008,03,25,03,10,-1.40
2008,03,25,03,11,-1.40
2008,03,25,03,12,-1.40
2008,03,25,03,13,-1.40
2008,03,25,03,14,-1.40
2008,03,25,03,15,-1.40
2008,03,25,03,16,-1.50
2008,03,25,03,17,-1.50
2008,03,25,03,18,-1.50
2008,03,25,03,19,-1.50
2008,03,25,03,20,-1.50
2008,03,25,03,21,-1.50
2008,03,25,03,22,-1.50
2008,03,25,03,23,-1.50
2008,03,25,03,24,-1.50
2008,03,25,03,25,-1.50
2008,03,25,03,26,-1.50
2008,03,25,03,27,-1.50
2008,03,25,03,28,-1.50
2008,03,25,03,29,-1.50
2008,03,25,03,30,-1.60
2008,03,25,03,31,-1.60
2008,03,25,03,32,-1.60
2008,03,25,03,33,-1.60
2008,03,25,03,34,-1.60
2008,03,25,03,35,-1.60
2008,03,25,03,36,-1.70
2008,03,25,03,37,-1.70
2008,03,25,03,38,-1.70
2008,03,25,03,39,-1.70
2008,03,25,03,40,-1.70
2008,03,25,03,41,-1.70
2008,03,25,03,42,-1.70
2008,03,25,03,43,-1.70
2008,03,25,03,44,-1.70
2008,03,25,03,45,-1.60
2008,03,25,03,46,-1.60
2008,03,25,03,47,-1.60
2008,03,25,03,48,-1.60
2008,03,25,03,49,-1.60
2008,03,25,03,50,-1.60
2008,03,25,03,51,-1.60
2008,03,25,03,52,-1.60
2008,03,25,03,53,-1.50
2008,03,25,03,54,-1.50
2008,03,25,03,55,-1.50
2008,03,25,03,56,-1.50
2008,03,25,03,57,-1.40
2008,03,25,03,58,-1.40
2008,03,25,03,59,-1.40
2008,03,25,04,00,-1.40
2008,03,25,04,01,-1.40
2008,03,25,04,02,-1.40
2008,03,25,04,03,-1.30
2008,03,25,04,04,-1.30
2008,03,25,04,05,-1.20
2008,03,25,04,06,-1.20
2008,03,25,04,07,-1.20
2008,03,25,04,08,-1.10
2008,03,25,04,09,-1.10
2008,03,25,04,10,-1.10
2008,03,25,04,11,-1.10
2008,03,25,04,12,-1.10
2008,03,25,04,13,-1.10
2008,03,25,04,14,-1.10
2008,03,25,04,15,-1.20
2008,03,25,04,16,-1.20
2008,03,25,04,17,-1.30
2008,03,25,04,18,-1.30
2008,03,25,04,19,-1.40
2008,03,25,04,20,-1.40
2008,03,25,04,21,-1.40
2008,03,25,04,22,-1.40
2008,03,25,04,23,-1.40
2008,03,25,04,24,-1.40
2008,03,25,04,25,-1.40
2008,03,25,04,26,-1.40
2008,03,25,04,27,-1.50
2008,03,25,04,28,-1.50
2008,03,25,04,29,-1.50
2008,03,25,04,30,-1.50
2008,03,25,04,31,-1.60
2008,03,25,04,32,-1.60
2008,03,25,04,33,-1.60
2008,03,25,04,34,-1.60
2008,03,25,04,35,-1.70
2008,03,25,04,36,-1.70
2008,03,25,04,37,-1.70
2008,03,25,04,38,-1.70
2008,03,25,04,39,-1.70
2008,03,25,04,40,-1.60
2008,03,25,04,41,-1.60
2008,03,25,04,42,-1.60
2008,03,25,04,43,-1.60
2008,03,25,04,44,-1.60
2008,03,25,04,45,-1.60
2008,03,25,04,46,-1.60
2008,03,25,04,47,-1.70
2008,03,25,04,48,-1.70
2008,03,25,04,49,-1.70
2008,03,25,04,50,-1.70
2008,03,25,04,51,-1.70
2008,03,25,04,52,-1.70
2008,03,25,04,53,-1.70
2008,03,25,04,54,-1.60
2008,03,25,04,55,-1.60
2008,03,25,04,56,-1.60
2008,03,25,04,57,-1.60
2008,03,25,04,58,-1.60
2008,03,25,04,59,-1.60
2008,03,25,05,00,-1.60
2008,03,25,05,01,-1.60
2008,03,25,05,02,-1.60
2008,03,25,05,03,-1.60
2008,03,25,05,04,-1.60
2008,03,25,05,05,-1.60
2008,03,25,05,06,-1.60
2008,03,25,05,07,-1.60
2008,03,25,05,08,-1.60
2008,03,25,05,09,-1.60
2008,03,25,05,10,-1.50
2008,03,25,05,11,-1.50
2008,03,25,05,12,-1.50
2008,03,25,05,13,-1.50
2008,03,25,05,14,-1.50
2008,03,25,05,15,-1.50
2008,03,25,05,16,-1.50
2008,03,25,05,17,-1.50
2008,03,25,05,18,-1.50
2008,03,25,05,19,-1.50
2008,03,25,05,20,-1.50
2008,03,25,05,21,-1.60
2008,03,25,05,22,-1.60
2008,03,25,05,23,-1.60
2008,03,25,05,24,-1.60
2008,03,25,05,25,-1.60
2008,03,25,05,26,-1.60
2008,03,25,05,27,-1.60
2008,03,25,05,28,-1.60
2008,03,25,05,29,-1.60
2008,03,25,05,30,-1.60
2008,03,25,05,31,-1.60
2008,03,25,05,32,-1.60
2008,03,25,05,33,-1.60
2008,03,25,05,34,-1.70
2008,03,25,05,35,-1.70
2008,03,25,05,36,-1.70
2008,03,25,05,37,-1.70
2008,03,25,05,38,-1.70
2008,03,25,05,39,-1.70
2008,03,25,05,40,-1.70
2008,03,25,05,41,-1.70
2008,03,25,05,42,-1.70
2008,03,25,05,43,-1.70
2008,03,25,05,44,-1.70
2008,03,25,05,45,-1.70
2008,03,25,05,46,-1.60
2008,03,25,05,47,-1.60
2008,03,25,05,48,-1.60
2008,03,25,05,49,-1.60
2008,03,25,05,50,-1.60
2008,03,25,05,51,-1.60
2008,03,25,05,52,-1.60
2008,03,25,05,53,-1.60
2008,03,25,05,54,-1.60
2008,03,25,05,55,-1.60
2008,03,25,05,56,-1.60
2008,03,25,05,57,-1.60
2008,03,25,05,58,-1.60
2008,03,25,05,59,-1.60
2008,03,25,06,00,-1.60
2008,03,25,06,01,-1.60
2008,03,25,06,02,-1.60
2008,03,25,06,03,-1.50
2008,03,25,06,04,-1.50
2008,03,25,06,05,-1.50
2008,03,25,06,06,-1.40
2008,03,25,06,07,-1.40
2008,03,25,06,08,-1.40
2008,03,25,06,09,-1.40
2008,03,25,06,10,-1.40
2008,03,25,06,11,-1.40
2008,03,25,06,12,-1.40
2008,03,25,06,13,-1.30
2008,03,25,06,14,-1.30
2008,03,25,06,15,-1.30
2008,03,25,06,16,-1.30
2008,03,25,06,17,-1.20
2008,03,25,06,18,-1.20
2008,03,25,06,19,-1.20
2008,03,25,06,20,-1.10
2008,03,25,06,21,-1.10
2008,03,25,06,22,-1.10
2008,03,25,06,23,-1.10
2008,03,25,06,24,-1.10
2008,03,25,06,25,-0.90
2008,03,25,06,26,-0.90
2008,03,25,06,27,-0.90
2008,03,25,06,28,-0.90
2008,03,25,06,29,-0.90
2008,03,25,06,30,-0.90
2008,03,25,06,31,-0.90
2008,03,25,06,32,-0.90
2008,03,25,06,33,-0.80
2008,03,25,06,34,-0.80
2008,03,25,06,35,-0.70
2008,03,25,06,36,-0.70
2008,03,25,06,37,-0.60
2008,03,25,06,38,-0.60
2008,03,25,06,39,-0.50
2008,03,25,06,40,-0.40
2008,03,25,06,41,-0.40
2008,03,25,06,42,-0.40
2008,03,25,06,43,-0.40
2008,03,25,06,44,-0.40
2008,03,25,06,45,-0.30
2008,03,25,06,46,-0.30
2008,03,25,06,47,-0.20
2008,03,25,06,48,-0.20
2008,03,25,06,49,-0.20
2008,03,25,06,50,-0.10
2008,03,25,06,51,-0.10
2008,03,25,06,52,-0.10
2008,03,25,06,53,-0.10
2008,03,25,06,54,-0.10
2008,03,25,06,55,-0.10
2008,03,25,06,56,-0.10
2008,03,25,06,57,-0.10
2008,03,25,06,58,0.00
2008,03,25,06,59,0.10
2008,03,25,07,00,0.10
2008,03,25,07,01,0.10
2008,03,25,07,02,0.10
2008,03,25,07,03,0.10
2008,03,25,07,04,0.20
2008,03,25,07,05,0.20
2008,03,25,07,06,0.20
2008,03,25,07,07,0.20
2008,03,25,07,08,0.20
2008,03,25,07,09,0.30
2008,03,25,07,10,0.30
2008,03,25,07,11,0.30
2008,03,25,07,12,0.30
2008,03,25,07,13,0.30
2008,03,25,07,14,0.30
2008,03,25,07,15,0.40
2008,03,25,07,16,0.40
2008,03,25,07,17,0.40
2008,03,25,07,18,0.40
2008,03,25,07,19,0.40
2008,03,25,07,20,0.40
2008,03,25,07,21,0.50
2008,03,25,07,22,0.50
2008,03,25,07,23,0.50
2008,03,25,07,24,0.60
2008,03,25,07,25,0.60
2008,03,25,07,26,0.60
2008,03,25,07,27,0.70
2008,03,25,07,28,0.70
2008,03,25,07,29,0.80
2008,03,25,07,30,0.80
2008,03,25,07,31,0.80
2008,03,25,07,32,0.80
2008,03,25,07,33,0.80
2008,03,25,07,34,0.80
2008,03,25,07,35,0.80
2008,03,25,07,36,0.80
2008,03,25,07,37,0.80
2008,03,25,07,38,0.90
2008,03,25,07,39,0.90
2008,03,25,07,40,1.00
2008,03,25,07,41,1.00
2008,03,25,07,42,1.10
2008,03,25,07,43,1.10
2008,03,25,07,44,1.10
2008,03,25,07,45,1.10
2008,03,25,07,46,1.20
2008,03,25,07,47,1.20
2008,03,25,07,48,1.30
2008,03,25,07,49,1.30
2008,03,25,07,50,1.30
2008,03,25,07,51,1.30
2008,03,25,07,52,1.40
2008,03,25,07,53,1.40
2008,03,25,07,54,1.50
2008,03,25,07,55,1.50
2008,03,25,07,56,1.60
2008,03,25,07,57,1.70
2008,03,25,07,58,1.80
2008,03,25,07,59,1.80
2008,03,25,08,00,1.80
2008,03,25,08,01,1.80
2008,03,25,08,02,1.80
2008,03,25,08,03,1.80
2008,03,25,08,04,1.80
2008,03,25,08,05,1.80
2008,03,25,08,06,1.90
2008,03,25,08,07,1.90
2008,03,25,08,08,1.90
2008,03,25,08,09,1.90
2008,03,25,08,10,1.90
2008,03,25,08,11,1.90
2008,03,25,08,12,1.90
2008,03,25,08,13,1.90
2008,03,25,08,14,2.00
2008,03,25,08,15,1.90
2008,03,25,08,16,1.90
2008,03,25,08,17,1.90
2008,03,25,08,18,1.90
2008,03,25,08,19,1.90
2008,03,25,08,20,1.90
2008,03,25,08,21,1.90
2008,03,25,08,22,2.00
2008,03,25,08,23,2.00
2008,03,25,08,24,2.00
2008,03,25,08,25,2.10
2008,03,25,08,26,2.10
2008,03,25,08,27,2.20
2008,03,25,08,28,2.20
2008,03,25,08,29,2.20
2008,03,25,08,30,2.30
2008,03,25,08,31,2.40
2008,03,25,08,32,2.40
2008,03,25,08,33,2.40
2008,03,25,08,34,2.50
2008,03,25,08,35,2.50
2008,03,25,08,36,2.50
2008,03,25,08,37,2.50
2008,03,25,08,38,2.50
2008,03,25,08,39,2.40
2008,03,25,08,40,2.40
2008,03,25,08,41,2.40
2008,03,25,08,42,2.40
2008,03,25,08,43,2.40
2008,03,25,08,44,2.40
2008,03,25,08,45,2.40
2008,03,25,08,46,2.40
2008,03,25,08,47,2.40
2008,03,25,08,48,2.50
2008,03,25,08,49,2.50
2008,03,25,08,50,2.50
2008,03,25,08,51,2.50
2008,03,25,08,52,2.60
2008,03,25,08,53,2.60
2008,03,25,08,54,2.70
2008,03,25,08,55,2.70
2008,03,25,08,56,2.70
2008,03,25,08,57,2.80
2008,03,25,08,58,2.80
2008,03,25,08,59,2.90
2008,03,25,09,00,2.90
2008,03,25,09,01,2.90
2008,03,25,09,02,2.90
2008,03,25,09,03,2.90
2008,03,25,09,04,3.00
2008,03,25,09,05,3.10
2008,03,25,09,06,3.10
2008,03,25,09,07,3.10
2008,03,25,09,08,3.10
2008,03,25,09,09,3.10
2008,03,25,09,10,3.10
2008,03,25,09,11,3.20
2008,03,25,09,12,3.20
2008,03,25,09,13,3.20
2008,03,25,09,14,3.20
2008,03,25,09,15,3.30
2008,03,25,09,16,3.30
2008,03,25,09,17,3.30
2008,03,25,09,18,3.30
2008,03,25,09,19,3.30
2008,03,25,09,20,3.30
2008,03,25,09,21,3.40
2008,03,25,09,22,3.40
2008,03,25,09,23,3.50
2008,03,25,09,24,3.50
2008,03,25,09,25,3.60
2008,03,25,09,26,3.60
2008,03,25,09,27,3.60
2008,03,25,09,28,3.70
2008,03,25,09,29,3.70
2008,03,25,09,30,3.80
2008,03,25,09,31,3.80
2008,03,25,09,32,3.80
2008,03,25,09,33,3.80
2008,03,25,09,34,3.80
2008,03,25,09,35,3.90
2008,03,25,09,36,3.90
2008,03,25,09,37,3.90
2008,03,25,09,38,4.00
2008,03,25,09,39,4.00
2008,03,25,09,40,4.00
2008,03,25,09,41,4.00
2008,03,25,09,42,4.10
2008,03,25,09,43,4.10
2008,03,25,09,44,4.10
2008,03,25,09,45,4.20
2008,03,25,09,46,4.20
2008,03,25,09,47,4.20
2008,03,25,09,48,4.20
2008,03,25,09,49,4.20
2008,03,25,09,50,4.20
2008,03,25,09,51,4.20
2008,03,25,09,52,4.20
2008,03,25,09,53,4.20
2008,03,25,09,54,4.20
2008,03,25,09,55,4.20
2008,03,25,09,56,4.30
2008,03,25,09,57,4.30
2008,03,25,09,58,4.40
2008,03,25,09,59,4.40
2008,03,25,10,00,4.40
2008,03,25,10,01,4.40
2008,03,25,10,02,4.50
2008,03,25,10,03,4.50
2008,03,25,10,04,4.50
2008,03,25,10,05,4.60
2008,03,25,10,06,4.60
2008,03,25,10,07,4.60
2008,03,25,10,08,4.60
2008,03,25,10,09,4.70
2008,03,25,10,10,4.70
2008,03,25,10,11,4.70
2008,03,25,10,12,4.70
2008,03,25,10,13,4.80
2008,03,25,10,14,4.80
2008,03,25,10,15,4.80
2008,03,25,10,16,4.90
2008,03,25,10,17,4.90
2008,03,25,10,18,5.00
2008,03,25,10,19,5.10
2008,03,25,10,20,5.10
2008,03,25,10,21,5.10
2008,03,25,10,22,5.20
2008,03,25,10,23,5.30
2008,03,25,10,24,5.30
2008,03,25,10,25,5.30
2008,03,25,10,26,5.30
2008,03,25,10,27,5.30
2008,03,25,10,28,5.40
2008,03,25,10,29,5.40
2008,03,25,10,30,5.40
2008,03,25,10,31,5.30
2008,03,25,10,32,5.30
2008,03,25,10,33,5.30
2008,03,25,10,34,5.30
2008,03,25,10,35,5.30
2008,03,25,10,36,5.30
2008,03,25,10,37,5.30
2008,03,25,10,38,5.30
2008,03,25,10,39,5.30
2008,03,25,10,40,5.40
2008,03,25,10,41,5.50
2008,03,25,10,42,5.50
2008,03,25,10,43,5.50
2008,03,25,10,44,5.60
2008,03,25,10,45,5.60
2008,03,25,10,46,5.60
2008,03,25,10,47,5.70
2008,03,25,10,48,5.70
2008,03,25,10,49,5.70
2008,03,25,10,50,5.70
2008,03,25,10,51,5.70
2008,03,25,10,52,5.70
2008,03,25,10,53,5.70
2008,03,25,10,54,5.70
2008,03,25,10,55,5.70
2008,03,25,10,56,5.70
2008,03,25,10,57,5.70
2008,03,25,10,58,5.80
2008,03,25,10,59,5.80
2008,03,25,11,00,5.90
2008,03,25,11,01,5.90
2008,03,25,11,02,5.90
2008,03,25,11,03,6.00
2008,03,25,11,04,6.00
2008,03,25,11,05,6.00
2008,03,25,11,06,6.00
2008,03,25,11,07,5.90
2008,03,25,11,08,6.00
2008,03,25,11,09,6.10
2008,03,25,11,10,6.20
2008,03,25,11,11,6.20
2008,03,25,11,12,6.20
2008,03,25,11,13,6.30
2008,03,25,11,14,6.30
2008,03,25,11,15,6.40
2008,03,25,11,16,6.40
2008,03,25,11,17,6.40
2008,03,25,11,18,6.50
2008,03,25,11,19,6.60
2008,03,25,11,20,6.70
2008,03,25,11,21,6.70
2008,03,25,11,22,6.70
2008,03,25,11,23,6.70
2008,03,25,11,24,6.70
2008,03,25,11,25,6.80
2008,03,25,11,26,6.80
2008,03,25,11,27,6.80
2008,03,25,11,28,6.90
2008,03,25,11,29,7.00
2008,03,25,11,30,7.10
2008,03,25,11,31,7.20
2008,03,25,11,32,7.20
2008,03,25,11,33,7.30
2008,03,25,11,34,7.30
2008,03,25,11,35,7.30
2008,03,25,11,36,7.30
2008,03,25,11,37,7.30
2008,03,25,11,38,7.40
2008,03,25,11,39,7.40
2008,03,25,11,40,7.40
2008,03,25,11,41,7.40
2008,03,25,11,42,7.40
2008,03,25,11,43,7.40
2008,03,25,11,44,7.40
2008,03,25,11,45,7.50
2008,03,25,11,46,7.60
2008,03,25,11,47,7.60
2008,03,25,11,48,7.60
2008,03,25,11,49,7.50
2008,03,25,11,50,7.40
2008,03,25,11,51,7.40
2008,03,25,11,52,7.30
2008,03,25,11,53,7.20
2008,03,25,11,54,7.10
2008,03,25,11,55,7.10
2008,03,25,11,56,7.20
2008,03,25,11,57,7.30
2008,03,25,11,58,7.30
2008,03,25,11,59,7.30
2008,03,25,12,00,7.30
2008,03,25,12,01,7.30
2008,03,25,12,02,7.30
2008,03,25,12,03,7.50
2008,03,25,12,04,7.60
2008,03,25,12,05,7.70
2008,03,25,12,06,7.80
2008,03,25,12,07,7.80
2008,03,25,12,08,7.80
2008,03,25,12,09,7.70
2008,03,25,12,10,7.60
2008,03,25,12,11,7.60
2008,03,25,12,12,7.60
2008,03,25,12,13,7.70
2008,03,25,12,14,7.70
2008,03,25,12,15,7.60
2008,03,25,12,16,7.60
2008,03,25,12,17,7.60
2008,03,25,12,18,7.60
2008,03,25,12,19,7.60
2008,03,25,12,20,7.70
2008,03,25,12,21,7.80
2008,03,25,12,22,7.80
2008,03,25,12,23,7.80
2008,03,25,12,24,7.70
2008,03,25,12,25,7.70
2008,03,25,12,26,7.70
2008,03,25,12,27,7.80
2008,03,25,12,28,7.70
2008,03,25,12,29,7.70
2008,03,25,12,30,7.80
2008,03,25,12,31,7.80
2008,03,25,12,32,7.80
2008,03,25,12,33,7.80
2008,03,25,12,34,7.60
2008,03,25,12,35,7.50
2008,03,25,12,36,7.40
2008,03,25,12,37,7.30
2008,03,25,12,38,7.40
2008,03,25,12,39,7.40
2008,03,25,12,40,7.50
2008,03,25,12,41,7.50
2008,03,25,12,42,7.70
2008,03,25,12,43,7.80
2008,03,25,12,44,7.90
2008,03,25,12,45,7.90
2008,03,25,12,46,7.90
2008,03,25,12,47,7.90
2008,03,25,12,48,7.80
2008,03,25,12,49,7.90
2008,03,25,12,50,7.80
2008,03,25,12,51,7.80
2008,03,25,12,52,7.80
2008,03,25,12,53,7.80
2008,03,25,12,54,7.80
2008,03,25,12,55,7.80
2008,03,25,12,56,7.80
2008,03,25,12,57,7.90
2008,03,25,12,58,8.00
2008,03,25,12,59,8.10
2008,03,25,13,00,8.10
2008,03,25,13,01,8.00
2008,03,25,13,02,8.10
2008,03,25,13,03,8.20
2008,03,25,13,04,8.20
2008,03,25,13,05,8.30
2008,03,25,13,06,8.30
2008,03,25,13,07,8.40
2008,03,25,13,08,8.30
2008,03,25,13,09,8.10
2008,03,25,13,10,7.90
2008,03,25,13,11,7.90
2008,03,25,13,12,7.90
2008,03,25,13,13,7.90
2008,03,25,13,14,7.90
2008,03,25,13,15,7.80
2008,03,25,13,16,7.80
2008,03,25,13,17,7.80
2008,03,25,13,18,7.80
2008,03,25,13,19,7.90
2008,03,25,13,20,7.90
2008,03,25,13,21,7.90
2008,03,25,13,22,7.90
2008,03,25,13,23,7.90
2008,03,25,13,24,7.90
2008,03,25,13,25,7.90
2008,03,25,13,26,7.80
2008,03,25,13,27,7.80
2008,03,25,13,28,7.70
2008,03,25,13,29,7.80
2008,03,25,13,30,7.80
2008,03,25,13,31,7.80
2008,03,25,13,32,7.80
2008,03,25,13,33,7.80
2008,03,25,13,34,7.70
2008,03,25,13,35,7.70
2008,03,25,13,36,7.70
2008,03,25,13,37,7.60
2008,03,25,13,38,7.50
2008,03,25,13,39,7.50
2008,03,25,13,40,7.60
2008,03,25,13,41,7.70
2008,03,25,13,42,7.80
2008,03,25,13,43,7.80
2008,03,25,13,44,7.90
2008,03,25,13,45,7.90
2008,03,25,13,46,7.80
2008,03,25,13,47,7.80
2008,03,25,13,48,7.90
2008,03,25,13,49,7.90
2008,03,25,13,50,7.90
2008,03,25,13,51,7.80
2008,03,25,13,52,7.80
2008,03,25,13,53,7.70
2008,03,25,13,54,7.70
2008,03,25,13,55,7.70
2008,03,25,13,56,7.70
2008,03,25,13,57,7.70
2008,03,25,13,58,7.70
2008,03,25,13,59,7.60
2008,03,25,14,00,7.60
2008,03,25,14,01,7.60
2008,03,25,14,02,7.60
2008,03,25,14,03,7.60
2008,03,25,14,04,7.70
2008,03,25,14,05,7.80
2008,03,25,14,06,7.80
2008,03,25,14,07,7.80
2008,03,25,14,08,7.80
2008,03,25,14,09,7.80
2008,03,25,14,10,7.80
2008,03,25,14,11,7.80
2008,03,25,14,12,7.60
2008,03,25,14,13,7.50
2008,03,25,14,14,7.40
2008,03,25,14,15,7.40
2008,03,25,14,16,7.30
2008,03,25,14,17,7.30
2008,03,25,14,18,7.30
2008,03,25,14,19,7.30
2008,03,25,14,20,7.40
2008,03,25,14,21,7.40
2008,03,25,14,22,7.40
2008,03,25,14,23,7.50
2008,03,25,14,24,7.50
2008,03,25,14,25,7.50
2008,03,25,14,26,7.60
2008,03,25,14,27,7.60
2008,03,25,14,28,7.70
2008,03,25,14,29,7.80
2008,03,25,14,30,7.80
2008,03,25,14,31,7.80
2008,03,25,14,32,7.80
2008,03,25,14,33,7.80
2008,03,25,14,34,7.80
2008,03,25,14,35,7.80
2008,03,25,14,36,7.90
2008,03,25,14,37,7.90
2008,03,25,14,38,7.90
2008,03,25,14,39,7.90
2008,03,25,14,40,7.90
2008,03,25,14,41,8.00
2008,03,25,14,42,8.00
2008,03,25,14,43,8.10
2008,03,25,14,44,8.10
2008,03,25,14,45,8.10
2008,03,25,14,46,8.10
2008,03,25,14,47,8.10
2008,03,25,14,48,8.10
2008,03,25,14,49,8.20
2008,03,25,14,50,8.20
2008,03,25,14,51,8.20
2008,03,25,14,52,8.20
2008,03,25,14,53,8.20
2008,03,25,14,54,8.20
2008,03,25,14,55,8.20
2008,03,25,14,56,8.20
2008,03,25,14,57,8.20
2008,03,25,14,58,8.20
2008,03,25,14,59,8.30
2008,03,25,15,00,8.30
2008,03,25,15,01,8.40
2008,03,25,15,02,8.40
2008,03,25,15,03,8.40
2008,03,25,15,04,8.40
2008,03,25,15,05,8.40
2008,03,25,15,06,8.40
2008,03,25,15,07,8.40
2008,03,25,15,08,8.50
2008,03,25,15,09,8.50
2008,03,25,15,10,8.50
2008,03,25,15,11,8.50
2008,03,25,15,12,8.40
2008,03,25,15,13,8.40
2008,03,25,15,14,8.30
2008,03,25,15,15,8.40
2008,03,25,15,16,8.40
2008,03,25,15,17,8.40
2008,03,25,15,18,8.40
2008,03,25,15,19,8.40
2008,03,25,15,20,8.30
2008,03,25,15,21,8.30
2008,03,25,15,22,8.30
2008,03,25,15,23,8.30
2008,03,25,15,24,8.30
2008,03,25,15,25,8.30
2008,03,25,15,26,8.20
2008,03,25,15,27,8.30
2008,03,25,15,28,8.30
2008,03,25,15,29,8.30
2008,03,25,15,30,8.30
2008,03,25,15,31,8.30
2008,03,25,15,32,8.30
2008,03,25,15,33,8.20
2008,03,25,15,34,8.20
2008,03,25,15,35,8.20
2008,03,25,15,36,8.10
2008,03,25,15,37,8.10
2008,03,25,15,38,8.10
2008,03,25,15,39,8.00
2008,03,25,15,40,7.90
2008,03,25,15,41,7.90
2008,03,25,15,42,7.90
2008,03,25,15,43,7.90
2008,03,25,15,44,7.90
2008,03,25,15,45,7.90
2008,03,25,15,46,7.90
2008,03,25,15,47,7.90
2008,03,25,15,48,7.90
2008,03,25,15,49,7.90
2008,03,25,15,50,7.90
2008,03,25,15,51,7.90
2008,03,25,15,52,8.00
2008,03,25,15,53,7.90
2008,03,25,15,54,7.90
2008,03,25,15,55,7.80
2008,03,25,15,56,7.80
2008,03,25,15,57,7.80
2008,03,25,15,58,7.70
2008,03,25,15,59,7.70
2008,03,25,16,00,7.70
2008,03,25,16,01,7.60
2008,03,25,16,02,7.60
2008,03,25,16,03,7.60
2008,03,25,16,04,7.60
2008,03,25,16,05,7.50
2008,03,25,16,06,7.50
2008,03,25,16,07,7.50
2008,03,25,16,08,7.60
2008,03,25,16,09,7.60
2008,03,25,16,10,7.60
2008,03,25,16,11,7.60
2008,03,25,16,12,7.60
2008,03,25,16,13,7.60
2008,03,25,16,14,7.50
2008,03,25,16,15,7.50
2008,03,25,16,16,7.50
2008,03,25,16,17,7.50
2008,03,25,16,18,7.50
2008,03,25,16,19,7.50
2008,03,25,16,20,7.50
2008,03,25,16,21,7.50
2008,03,25,16,22,7.60
2008,03,25,16,23,7.60
2008,03,25,16,24,7.60
2008,03,25,16,25,7.60
2008,03,25,16,26,7.70
2008,03,25,16,27,7.70
2008,03,25,16,28,7.70
2008,03,25,16,29,7.60
2008,03,25,16,30,7.60
2008,03,25,16,31,7.60
2008,03,25,16,32,7.60
2008,03,25,16,33,7.50
2008,03,25,16,34,7.50
2008,03,25,16,35,7.50
2008,03,25,16,36,7.50
2008,03,25,16,37,7.40
2008,03,25,16,38,7.50
2008,03,25,16,39,7.50
2008,03,25,16,40,7.50
2008,03,25,16,41,7.50
2008,03,25,16,42,7.50
2008,03,25,16,43,7.60
2008,03,25,16,44,7.60
2008,03,25,16,45,7.60
2008,03,25,16,46,7.60
2008,03,25,16,47,7.70
2008,03,25,16,48,7.70
2008,03,25,16,49,7.80
2008,03,25,16,50,7.80
2008,03,25,16,51,7.80
2008,03,25,16,52,7.80
2008,03,25,16,53,7.80
2008,03,25,16,54,7.80
2008,03,25,16,55,7.80
2008,03,25,16,56,7.90
2008,03,25,16,57,7.90
2008,03,25,16,58,7.90
2008,03,25,16,59,8.00
2008,03,25,17,00,8.00
2008,03,25,17,01,8.00
2008,03,25,17,02,8.00
2008,03,25,17,03,8.00
2008,03,25,17,04,8.00
2008,03,25,17,05,8.00
2008,03,25,17,06,7.90
2008,03,25,17,07,7.80
2008,03,25,17,08,7.80
2008,03,25,17,09,7.80
2008,03,25,17,10,7.80
2008,03,25,17,11,7.80
2008,03,25,17,12,7.80
2008,03,25,17,13,7.70
2008,03,25,17,14,7.70
2008,03,25,17,15,7.70
2008,03,25,17,16,7.70
2008,03,25,17,17,7.70
2008,03,25,17,18,7.70
2008,03,25,17,19,7.70
2008,03,25,17,20,7.70
2008,03,25,17,21,7.70
2008,03,25,17,22,7.70
2008,03,25,17,23,7.60
2008,03,25,17,24,7.60
2008,03,25,17,25,7.60
2008,03,25,17,26,7.60
2008,03,25,17,27,7.50
2008,03,25,17,28,7.50
2008,03,25,17,29,7.50
2008,03,25,17,30,7.50
2008,03,25,17,31,7.60
2008,03,25,17,32,7.60
2008,03,25,17,33,7.60
2008,03,25,17,34,7.60
2008,03,25,17,35,7.70
2008,03,25,17,36,7.70
2008,03,25,17,37,7.70
2008,03,25,17,38,7.70
2008,03,25,17,39,7.70
2008,03,25,17,40,7.70
2008,03,25,17,41,7.70
2008,03,25,17,42,7.70
2008,03,25,17,43,7.70
2008,03,25,17,44,7.70
2008,03,25,17,45,7.80
2008,03,25,17,46,7.80
2008,03,25,17,47,7.80
2008,03,25,17,48,7.80
2008,03,25,17,49,7.80
2008,03,25,17,50,7.80